SCP
0 0 0 0 0 0 0 0 0 0 0 0 0 0 0 1 1 1 1 1 1 1 1 1 1 1 1 1 1 1 1 0 0 0 0 0 0 0 0 0 0 0 0 0
0 0 0 0 0 0 0 0 0 0 0 0 0 0 0 0 1 1 1 1 1 1 1 1 1 1 1 1 1 1 1 1 0 0 0 0 0 0 0 0 0 0 0 0
0 0 0 0 0 0 0 0 0 0 0 0 0 0 0 0 0 1 1 1 1 1 1 1 1 1 1 1 1 1 1 1 1 0 0 0 0 0 0 0 0 0 0 0
0 0 0 0 0 0 0 0 0 0 0 0 0 0 0 0 0 0 1 1 1 1 1 1 1 1 1 1 1 1 1 1 1 1 0 0 0 0 0 0 0 0 0 0
0 0 0 0 0 0 0 0 0 0 0 0 0 0 0 0 0 0 1 1 1 1 1 1 1 1 1 1 1 1 1 1 1 1 0 0 0 0 0 0 0 0 0 0
0 0 0 0 0 0 0 0 0 0 0 0 0 0 0 0 0 1 1 1 1 1 1 1 1 1 1 1 1 1 1 1 1 1 1 0 0 0 0 0 0 0 0 0
0 0 0 0 0 0 0 0 0 0 0 0 0 0 0 0 0 1 1 1 1 1 1 1 1 1 1 1 1 1 1 1 1 1 1 0 0 0 0 0 0 0 0 0
0 0 0 0 0 0 0 0 0 0 0 0 0 0 0 0 0 1 1 1 1 1 1 1 1 1 1 1 1 1 1 1 1 1 1 0 0 0 0 0 0 0 0 0
0 0 0 0 0 0 0 0 0 0 0 0 0 0 0 0 0 1 1 1 1 1 1 1 1 1 1 1 1 1 1 1 1 1 1 0 0 0 0 0 0 0 0 0
0 0 0 0 0 0 0 0 0 0 0 0 0 0 0 0 1 1 1 1 1 1 1 1 1 1 1 1 1 1 1 1 1 1 1 0 0 0 0 0 0 0 0 0
0 0 0 0 0 0 0 0 0 0 0 0 0 0 0 0 1 1 1 1 1 1 1 1 1 1 1 1 1 1 1 1 1 1 1 0 0 0 0 0 0 0 0 0
0 0 0 0 0 0 0 0 0 0 0 0 0 0 0 0 1 1 1 1 1 1 1 1 1 1 1 1 1 1 1 1 1 1 1 0 0 0 0 0 0 0 0 0
0 0 0 0 0 0 0 0 0 0 0 0 0 0 0 1 1 1 1 1 1 1 1 1 1 1 1 1 1 1 1 1 1 1 1 1 1 0 0 0 0 0 0 0
0 0 0 0 0 0 0 0 0 0 0 0 0 0 1 1 1 1 1 1 1 1 1 1 1 1 1 1 1 1 1 1 1 1 1 1 1 0 0 0 0 0 0 0
0 0 0 0 0 0 0 0 0 0 0 0 0 0 1 1 1 1 1 1 1 1 1 1 1 1 1 1 1 1 1 1 1 1 1 1 0 0 0 0 0 0 0 0
0 0 0 0 0 0 0 0 0 0 0 0 0 0 1 1 1 1 1 1 1 1 1 1 1 1 1 1 1 1 1 1 1 1 1 1 0 0 0 0 0 0 0 0
0 0 0 0 0 0 0 0 0 0 0 0 0 1 1 1 1 1 1 1 1 1 1 1 1 1 1 1 1 1 1 1 1 1 1 1 0 0 0 0 0 0 0 0
0 0 0 0 0 0 0 0 0 0 0 0 1 1 1 2 2 2 2 2 2 2 2 1 1 1 1 1 1 1 1 1 1 1 1 0 0 0 0 0 0 0 0 0
0 0 0 0 0 0 0 0 0 0 0 1 1 1 2 2 2 2 2 2 2 2 2 2 2 1 1 1 1 1 1 1 1 1 1 0 0 0 0 0 0 0 0 0
0 0 0 0 0 0 0 0 0 0 1 1 1 1 2 2 2 2 2 2 2 2 2 2 2 1 1 1 1 1 1 1 1 1 1 0 0 0 0 0 0 0 0 0
0 0 0 0 0 0 0 0 0 1 1 1 1 1 2 2 2 2 3 3 3 2 2 2 1 1 1 1 1 1 1 1 1 1 1 1 0 0 0 0 0 0 0 0
0 0 0 0 0 0 0 1 1 1 1 1 1 2 2 2 3 3 3 3 3 2 2 2 1 1 1 1 1 1 1 1 1 1 1 1 0 0 0 0 0 0 0 0
0 0 0 0 0 0 1 1 1 1 1 1 1 2 2 3 3 3 3 3 3 2 2 2 1 1 1 1 1 1 1 1 1 1 1 1 1 0 0 0 0 0 0 0
0 0 0 1 1 1 1 1 1 1 1 2 2 2 3 3 3 3 3 2 2 2 2 2 1 1 1 1 1 1 1 1 1 1 1 1 1 0 0 0 0 0 0 0
0 0 1 1 1 1 1 1 2 2 2 2 2 3 3 3 2 2 2 2 2 2 2 2 2 1 1 1 1 1 1 1 1 1 1 1 1 0 0 0 0 0 0 0
0 1 1 1 1 1 1 2 2 2 2 3 3 3 3 2 2 2 2 2 2 2 2 2 1 1 1 1 1 1 1 1 1 1 1 1 1 0 0 0 0 0 0 0
Wind_Speed
3 4 2 6 5 7 4 3 3 3 3 4 6 6 8 9 8 8 7 7 7 7 6 7 7 8 7 6 5 5 5 4 3 2 2 2 1 1 1 1 3 3 3 3
5 3 8 5 3 2 3 3 1 1 2 4 5 3 4 7 10 9 9 8 8 6 6 7 7 7 7 6 5 5 5 5 4 3 2 2 2 1 2 1 2 3 3 4
5 8 4 2 2 0 1 5 5 4 2 5 7 4 1 2 5 7 7 7 8 10 10 8 8 7 7 6 6 6 5 5 4 4 2 2 1 1 0 1 1 2 3 4
5 6 2 2 2 2 2 4 5 5 4 0 4 2 3 1 3 5 5 6 7 8 8 8 7 7 7 6 6 5 5 5 4 4 3 3 3 2 3 2 2 2 2 3
5 2 2 3 4 2 3 2 4 4 4 3 3 5 4 1 4 5 6 8 8 8 9 8 7 7 6 6 6 5 5 4 4 4 4 4 2 2 1 1 1 1 1 2
6 4 3 4 2 0 2 7 7 7 6 2 2 4 4 5 7 7 7 9 9 9 8 7 6 6 5 5 5 4 5 4 4 4 4 4 4 2 1 1 1 1 1 1
5 6 3 1 1 4 6 8 5 5 5 3 2 3 6 6 7 10 10 9 8 8 8 7 7 6 6 6 5 5 5 3 3 3 3 3 4 3 3 2 2 1 1 1
2 6 5 2 5 4 3 10 8 4 4 3 3 0 5 3 5 7 7 8 9 9 8 8 8 8 7 7 6 5 5 3 3 3 3 3 3 2 2 2 2 2 2 2
5 6 6 5 4 7 3 3 8 8 2 2 3 3 5 3 5 6 7 8 10 9 9 8 8 7 7 7 7 7 6 4 3 3 3 2 2 2 2 2 1 1 1 1
6 3 6 3 2 1 6 7 6 6 5 1 1 2 4 4 5 6 8 9 9 9 8 8 8 7 6 6 5 6 5 5 4 3 3 3 2 2 1 1 1 1 1 1
5 3 5 3 3 4 2 2 6 5 6 7 3 6 8 11 10 10 10 11 11 11 9 8 7 6 6 6 6 6 5 4 3 3 2 3 2 2 2 1 1 1 1 1
4 6 3 6 7 6 6 7 8 6 3 5 5 7 5 10 9 10 10 9 9 10 9 8 7 6 6 6 5 5 5 4 3 3 3 3 3 2 2 1 1 1 1 1
4 6 2 7 7 4 1 3 5 7 6 5 5 5 2 6 7 8 9 9 9 8 8 7 7 7 6 6 5 5 5 4 4 4 4 3 2 2 1 1 1 1 2 2
6 5 7 8 8 4 3 3 2 7 5 5 7 7 5 8 9 8 8 9 9 8 8 8 7 6 6 6 5 5 4 4 4 4 4 3 3 2 2 1 1 1 2 2
6 3 3 4 5 2 3 4 2 3 8 9 9 10 13 13 13 11 9 8 8 8 8 8 8 6 6 5 5 5 4 3 4 5 4 3 3 3 2 2 2 1 2 2
5 3 2 3 3 4 3 3 2 2 3 6 7 6 8 8 7 7 8 10 9 9 8 8 8 7 6 6 5 5 4 4 4 4 4 3 3 3 2 2 2 2 2 2
2 4 3 3 5 4 4 4 2 2 4 8 7 8 9 9 10 10 10 10 10 9 9 9 8 7 7 6 6 6 5 4 4 3 3 3 3 3 2 2 2 2 1 1
5 4 3 1 3 3 10 5 2 3 2 3 5 7 11 11 9 8 9 11 10 9 8 8 7 7 6 5 6 6 5 5 4 3 2 2 2 2 2 2 2 2 2 2
7 7 4 3 2 5 8 4 2 5 1 3 8 8 9 10 9 4 3 7 9 8 8 7 7 7 6 6 6 6 5 5 4 3 2 2 2 3 2 2 2 2 2 2
4 6 6 4 3 5 7 6 1 7 0 2 9 11 10 9 6 4 5 7 8 7 7 7 7 7 7 6 6 7 5 4 3 3 2 2 2 3 3 2 2 2 2 2
3 3 4 4 4 6 7 6 2 4 7 4 6 10 10 6 7 8 9 8 9 8 8 8 8 7 6 6 7 7 5 3 2 2 3 2 3 3 3 3 3 3 3 3
4 3 3 4 3 7 6 3 2 6 4 4 6 7 7 8 9 9 9 9 9 9 8 8 8 6 5 6 7 6 4 3 3 3 4 3 3 3 3 4 3 3 3 2
4 6 6 6 7 6 3 1 2 5 7 5 6 8 12 11 9 9 8 9 8 8 7 7 8 7 5 4 6 6 3 3 4 4 4 4 4 3 3 4 3 2 2 2
3 1 3 1 3 2 3 2 2 4 7 6 9 12 13 12 10 9 9 8 8 6 6 6 7 7 5 4 4 4 4 4 4 4 4 3 4 4 4 3 3 2 2 1
3 2 1 1 2 3 4 2 3 5 7 9 8 9 11 13 11 9 8 8 8 6 5 6 7 6 5 4 4 3 3 4 4 4 3 3 3 4 4 4 3 2 1 0
2 1 2 4 5 3 2 1 4 7 8 9 9 8 8 10 9 9 8 7 7 7 6 6 6 6 5 5 4 3 3 4 5 3 2 2 3 3 3 3 3 6 5 5
Wind_Direction
351 66 250 243 204 190 182 163 171 216 192 111 119 133 156 157 152 150 152 157 163 171 170 157 156 153 146 147 150 153 151 159 148 141 140 142 163 196 189 203 195 193 190 181
18 284 242 238 223 169 153 134 185 280 161 120 107 103 147 153 163 167 166 167 168 154 148 155 155 154 156 158 159 157 160 166 169 168 165 165 167 197 203 214 220 208 197 191
211 243 258 258 274 93 226 177 185 168 71 73 97 32 60 137 144 158 166 169 170 167 163 162 161 163 161 165 170 170 169 166 173 169 140 118 87 54 52 222 240 232 206 195
248 247 236 259 254 157 272 216 163 134 103 67 112 130 291 177 142 155 157 164 179 173 158 161 161 162 171 176 170 165 168 166 168 160 153 157 164 184 215 204 211 238 217 199
267 263 182 217 242 178 216 161 124 126 114 72 44 113 268 198 160 182 176 180 179 171 159 160 164 166 169 166 164 166 163 168 169 167 170 165 174 200 210 177 196 238 246 219
256 268 203 204 251 216 110 60 44 47 66 52 242 138 244 212 187 176 179 184 174 162 154 153 153 148 151 151 152 155 157 169 173 174 174 174 176 176 163 171 183 224 248 252
315 311 288 189 26 359 77 79 41 9 20 262 275 121 241 220 176 169 179 177 163 152 148 151 152 160 163 161 158 156 157 165 175 172 172 177 178 173 181 187 191 200 213 238
230 285 270 206 169 177 152 131 149 177 200 279 351 199 265 222 162 156 162 154 147 151 159 162 165 167 168 168 162 158 164 170 173 173 172 169 173 171 183 187 184 200 210 227
189 251 275 237 183 149 141 157 160 131 122 69 332 327 339 60 109 127 136 140 152 162 164 166 170 166 168 170 169 168 168 169 174 171 166 155 158 163 174 180 180 206 224 213
169 246 287 285 55 86 161 155 96 106 128 122 308 266 223 193 169 151 151 157 162 165 166 168 171 172 172 171 166 161 163 172 172 171 173 164 162 157 153 138 156 202 219 194
154 176 299 349 182 199 170 119 109 112 141 143 184 259 218 191 177 166 170 169 168 168 167 165 169 173 158 156 158 159 160 158 164 170 167 154 155 159 159 167 181 187 187 140
159 133 245 259 250 201 178 180 149 144 186 148 153 256 232 177 168 164 169 168 169 165 163 162 162 152 146 151 153 156 159 163 171 168 155 151 146 148 157 176 174 126 102 77
133 112 77 335 336 348 180 189 151 131 123 142 153 248 214 154 162 169 162 163 163 158 152 150 149 150 153 153 153 154 159 164 159 145 137 134 135 138 159 177 138 113 101 78
110 114 156 191 217 241 279 277 156 126 142 177 193 190 184 171 173 175 168 163 156 153 150 150 153 155 155 155 153 152 156 156 145 135 133 135 143 149 152 138 120 111 108 99
89 122 178 213 234 248 254 269 256 179 178 172 199 182 193 186 177 174 165 153 145 147 151 156 158 159 157 151 149 149 148 146 142 135 137 153 157 153 137 123 121 115 113 110
64 103 53 336 329 343 309 280 257 227 181 164 156 200 201 173 153 153 154 148 148 150 158 159 156 153 153 155 155 148 146 150 141 143 152 155 144 132 130 138 127 110 105 102
62 91 76 297 321 16 298 254 234 225 180 155 172 196 159 151 160 163 158 154 155 156 156 158 157 158 158 157 148 146 143 127 121 132 143 147 142 138 146 138 121 124 120 99
134 99 117 110 33 232 246 254 182 142 166 146 145 154 157 157 156 150 149 150 154 153 152 153 152 149 150 145 137 132 128 128 126 122 116 122 131 129 118 111 118 128 122 109
148 138 128 124 179 274 292 296 150 126 332 130 130 133 130 124 96 79 132 143 146 146 145 146 146 139 133 133 133 126 126 128 130 130 124 127 133 125 117 119 133 137 118 99
88 117 127 139 162 228 255 282 201 104 61 215 137 140 144 126 128 187 165 134 130 130 130 131 127 117 121 131 127 123 128 130 143 152 142 139 132 131 135 133 117 108 112 110
49 64 138 167 202 251 264 288 46 120 211 227 154 150 152 158 168 161 144 135 133 130 128 125 120 119 127 133 127 125 127 142 157 136 124 129 131 128 120 100 89 92 95 91
166 150 178 154 188 251 289 3 146 197 178 158 133 136 122 110 111 121 128 128 123 122 123 124 122 120 121 124 127 129 140 144 118 110 110 105 104 112 107 99 92 89 92 89
190 186 181 180 208 242 291 245 216 148 135 141 133 129 119 113 121 125 127 124 116 119 122 119 120 118 113 122 129 133 145 128 116 106 101 103 96 88 98 106 107 98 100 115
304 26 106 95 282 306 358 47 50 114 128 132 131 131 125 119 121 120 123 118 111 110 118 115 114 115 113 111 113 125 128 120 115 116 112 109 98 86 77 80 90 98 100 112
276 345 70 175 265 20 7 48 79 76 95 103 112 122 127 124 126 128 125 121 118 114 108 110 114 118 119 112 104 110 120 119 115 113 114 114 113 113 95 75 60 72 68 166
274 196 186 224 219 162 246 267 105 109 118 122 117 107 113 121 123 125 124 124 122 121 117 113 113 116 115 111 108 108 116 118 120 118 118 127 127 121 117 110 76 47 50 44